Weather History for New York, NY

Change the Weather History Date:

Friday, May 17, 2013

  Actual Average Record
Temperature  
Mean Temperature 68 °F 63 °F  
Max Temperature 74 °F 72 °F 90 °F (1974)
Min Temperature 61 °F 54 °F 38 °F (1983)
Degree Days  
Heating Degree Days 0 4  
Month to date heating degree days 86 96  
Since 1 July heating degree days 4395 4610  
Cooling Degree Days 3 2  
Month to date cooling degree days 16 19  
Year to date cooling degree days 16 27  
Growing Degree Days 17 (Base 50)    
Moisture  
Dew Point 39 °F    
Average Humidity 39    
Maximum Humidity 51    
Minimum Humidity 27    
Precipitation  
Precipitation 0.00 in 0.12 in 1.03 in (2011)
Month to date precipitation 3.33 1.93  
Year to date precipitation 12.75 15.83  
Snow  
Snow 0.00 in 0.00 in - ()
Month to date snowfall T 0.0  
Since 1 July snowfall 22.2 26.9  
Snow Depth 0.00 in    
Sea Level Pressure  
Sea Level Pressure 30.05 in    
Wind  
Wind Speed 8 mph (NNW)    
Max Wind Speed 21 mph    
Max Gust Speed 25 mph    
Visibility 10 miles    
Events      
T = Trace of Precipitation, MM = Missing Value Source: NWS Daily Summary

Daily Weather History Graph

Daily Weather History Graph

Search for Another Location

Airport:

Trip Planner

Search our weather history database for the weather conditions in past years. The results will help you decide how hot, cold, wet, or windy it might be!

Date:

Astronomy

May. 17, 2013 Rise Set
Actual Time 5:36 AM EDT 8:08 PM EDT
Civil Twilight 5:04 AM EDT 8:39 PM EDT
Nautical Twilight 4:25 AM EDT 9:18 PM EDT
Astronomical Twilight 3:42 AM EDT 10:02 PM EDT
Moon 12:07 PM EDT (5/17) 12:58 AM EDT (5/17)
Length of Visible Light 15h 34m
Length of Day
14h 31m
Waxing Crescent, 45% of the Moon is Illuminated
May 17
Waxing Crescent
May 18
First Quarter
May 25
Full
May 31
Last Quarter
Jun 8
New

Hourly Weather History & Observations

Time (EDT) Temp. Dew Point Humidity Pressure Visibility Wind Dir Wind Speed Gust Speed Precip Events Conditions
12:51 AM 70.0 °F 39.9 °F 33% 29.84 in 10.0 mi NW 9.2 mph - N/A   Clear
1:51 AM 68.0 °F 39.0 °F 35% 29.86 in 10.0 mi North 8.1 mph - N/A   Clear
2:51 AM 66.0 °F 35.1 °F 32% 29.90 in 10.0 mi NNW 13.8 mph - N/A   Clear
3:51 AM 64.0 °F 37.0 °F 37% 29.92 in 10.0 mi NNW 16.1 mph - N/A   Clear
4:51 AM 62.1 °F 41.0 °F 46% 29.94 in 10.0 mi NW 13.8 mph - N/A   Clear
5:51 AM 61.0 °F 39.0 °F 44% 29.98 in 10.0 mi NNW 9.2 mph - N/A   Mostly Cloudy
6:51 AM 61.0 °F 39.9 °F 46% 30.00 in 10.0 mi North 5.8 mph - N/A   Mostly Cloudy
7:51 AM 61.0 °F 42.1 °F 50% 30.04 in 10.0 mi NW 8.1 mph - N/A   Mostly Cloudy
8:51 AM 62.1 °F 41.0 °F 46% 30.05 in 10.0 mi NW 6.9 mph - N/A   Mostly Cloudy
9:51 AM 62.1 °F 39.0 °F 43% 30.06 in 10.0 mi NW 11.5 mph - N/A   Mostly Cloudy
10:51 AM 63.0 °F 39.0 °F 41% 30.07 in 10.0 mi NW 10.4 mph - N/A   Mostly Cloudy
11:51 AM 64.9 °F 39.9 °F 40% 30.08 in 10.0 mi NW 8.1 mph - N/A   Mostly Cloudy
12:51 PM 66.0 °F 37.9 °F 36% 30.08 in 10.0 mi NW 12.7 mph 19.6 mph N/A   Mostly Cloudy
1:51 PM 68.0 °F 39.0 °F 35% 30.08 in 10.0 mi NNW 9.2 mph 19.6 mph N/A   Mostly Cloudy
2:51 PM 69.1 °F 37.0 °F 31% 30.08 in 10.0 mi WNW 11.5 mph 18.4 mph N/A   Mostly Cloudy
3:51 PM 71.1 °F 36.0 °F 28% 30.07 in 10.0 mi North 4.6 mph - N/A   Mostly Cloudy
4:51 PM 72.0 °F 36.0 °F 27% 30.08 in 10.0 mi Calm Calm - N/A   Mostly Cloudy
5:51 PM 72.0 °F 37.0 °F 28% 30.08 in 10.0 mi NNE 4.6 mph - N/A   Mostly Cloudy
6:51 PM 73.0 °F 37.9 °F 28% 30.09 in 10.0 mi East 9.2 mph - N/A   Mostly Cloudy
7:51 PM 71.1 °F 37.0 °F 29% 30.12 in 10.0 mi ENE 6.9 mph - N/A   Mostly Cloudy
8:51 PM 68.0 °F 39.9 °F 36% 30.15 in 10.0 mi ENE 12.7 mph - N/A   Mostly Cloudy
9:51 PM 66.9 °F 39.0 °F 36% 30.18 in 10.0 mi ENE 4.6 mph - N/A   Scattered Clouds
10:51 PM 66.0 °F 37.9 °F 36% 30.18 in 10.0 mi East 4.6 mph - N/A   Mostly Cloudy
11:51 PM 66.0 °F 37.0 °F 34% 30.20 in 10.0 mi Calm Calm - N/A   Scattered Clouds